Date String (YYYY-MM-DD hh:mm:ss) UTC,Instrument flags,Ambient pressure (hPa),Sample flow (lpm),Bypass flow (lpm),Sample temperature (°C),Ambient temperature (°C),ASC tube jacket temperature (°C),LED temperature (°C),Box temperature (°C),Sample RH (%),Span deviation,Mass concentration (μg/m³),Mass concentration (μg/m³),Mass concentration (μg/m³)
DateTimeUTC,F1_M11,P_M11,Q1_M11,Q2_M11,T1_M11,T2_M11,T3_M11,T4_M11,T5_M11,U1_M11,ZSPAN_M11,X0_M11,X2_M11,X1_M11
2022-01-04 21:00:00,,0818.2,5.00,0.00,22.3,21.4,00.0,31.4,24.0,10.3,0000.0,0005.61,0001.38,0000.49
2022-01-04 21:01:00,,0818.4,5.01,0.00,22.3,21.4,00.0,31.4,23.9,10.5,0000.0,0005.64,0001.34,0000.48
2022-01-04 21:02:00,,0818.3,4.98,0.00,22.3,21.3,00.0,31.4,23.9,10.6,0000.0,0005.66,0001.35,0000.48
2022-01-04 21:03:00,,0818.4,5.00,0.00,22.2,21.3,00.0,31.3,23.9,10.4,0000.0,0006.13,0001.34,0000.48
2022-01-04 21:04:00,,0818.4,5.01,0.00,22.2,21.3,00.0,31.3,23.9,10.4,0000.0,0006.77,0001.36,0000.49
2022-01-04 21:05:00,,0818.5,4.98,0.00,22.2,21.3,00.0,31.3,23.9,10.4,0000.0,0007.64,0001.40,0000.49
2022-01-04 21:06:00,,0818.4,5.01,0.00,22.2,21.4,00.0,31.3,23.9,10.5,0000.0,0008.41,0001.37,0000.49
2022-01-04 21:07:00,,0818.4,4.99,0.00,22.2,21.3,00.0,31.3,23.9,10.3,0000.0,0009.06,0001.36,0000.49
2022-01-04 21:08:00,,0818.4,5.01,0.00,22.2,21.2,00.0,31.3,23.9,11.0,0000.0,0008.79,0001.33,0000.50
2022-01-04 21:09:00,,0818.4,5.00,0.00,22.2,21.2,00.0,31.3,23.9,10.8,0000.0,0008.82,0001.29,0000.51
2022-01-04 21:10:00,,0818.4,4.98,0.00,22.3,21.2,00.0,31.3,23.9,10.8,0000.0,0008.93,0001.25,0000.52
2022-01-04 21:11:00,,0818.5,5.01,0.00,22.3,21.2,00.0,31.3,23.9,10.7,0000.0,0009.22,0001.36,0000.54
2022-01-04 21:12:00,,0818.5,5.00,0.00,22.3,21.2,00.0,31.3,23.9,10.9,0000.0,0009.82,0001.41,0000.53
2022-01-04 21:13:00,,0818.5,5.01,0.00,22.3,21.2,00.0,31.3,23.9,10.9,0000.0,0010.26,0001.43,0000.53
2022-01-04 21:14:00,,0818.4,4.99,0.00,22.3,21.2,00.0,31.3,23.9,10.5,0000.0,0009.96,0001.46,0000.55
2022-01-04 21:15:00,,0818.4,4.99,0.00,22.3,21.2,00.0,31.3,23.9,10.4,0000.0,0009.66,0001.44,0000.54
2022-01-04 21:16:00,,0818.4,5.01,0.00,22.3,21.3,00.0,31.3,23.9,10.5,0000.0,0008.96,0001.44,0000.54
2022-01-04 21:17:00,,0818.4,5.00,0.00,22.2,21.3,00.0,31.3,23.9,10.5,0000.0,0008.22,0001.51,0000.55
2022-01-04 21:18:00,,0818.4,4.99,0.00,22.2,21.3,00.0,31.3,23.9,10.6,0000.0,0007.03,0001.52,0000.55
2022-01-04 21:19:00,,0818.4,5.01,0.00,22.2,21.4,00.0,31.3,23.9,10.6,0000.0,0006.58,0001.51,0000.55
2022-01-04 21:20:00,,0818.3,5.00,0.00,22.3,21.9,00.0,31.3,24.1,10.8,0000.0,0006.15,0001.50,0000.54
2022-01-04 21:21:00,,0818.4,4.99,0.00,22.4,22.7,00.0,31.4,24.4,10.8,0000.0,0005.64,0001.47,0000.53
2022-01-04 21:22:00,,0818.4,5.00,0.00,22.5,22.9,00.0,31.4,24.6,11.0,0000.0,0005.29,0001.43,0000.53
2022-01-04 21:23:00,,0818.6,5.00,0.00,22.6,22.8,00.0,31.4,24.6,10.9,0000.0,0005.67,0001.37,0000.53
2022-01-04 21:24:00,,0818.7,5.00,0.00,22.6,22.6,00.0,31.5,24.4,10.7,0000.0,0004.79,0001.35,0000.53
2022-01-04 21:25:00,,0818.7,5.01,0.00,22.6,22.5,00.0,31.5,24.3,11.0,0000.0,0004.72,0001.35,0000.51
2022-01-04 21:26:00,,0818.7,5.00,0.00,22.6,22.3,00.0,31.5,24.2,11.0,0000.0,0005.13,0001.42,0000.51
2022-01-04 21:27:00,,0818.7,5.01,0.00,22.6,22.2,00.0,31.5,24.1,10.8,0000.0,0005.19,0001.42,0000.52
2022-01-04 21:28:00,,0818.5,4.99,0.00,22.5,22.1,00.0,31.5,24.2,10.6,0000.0,0005.18,0001.38,0000.51
2022-01-04 21:29:00,,0818.8,5.01,0.00,22.5,22.0,00.0,31.5,24.1,10.6,0000.0,0005.82,0001.34,0000.52
2022-01-04 21:30:00,,0818.8,4.99,0.00,22.5,21.9,00.0,31.5,24.0,10.9,0000.0,0006.10,0001.36,0000.51
2022-01-04 21:31:00,,0818.7,5.01,0.00,22.5,21.9,00.0,31.5,24.1,10.7,0000.0,0006.15,0001.34,0000.50
2022-01-04 21:32:00,,0818.8,4.99,0.00,22.5,21.8,00.0,31.5,24.1,10.7,0000.0,0006.25,0001.34,0000.50
2022-01-04 21:33:00,,0818.8,5.00,0.00,22.5,21.7,00.0,31.5,24.1,10.6,0000.0,0006.33,0001.34,0000.50
2022-01-04 21:34:00,,0818.8,5.00,0.00,22.5,21.6,00.0,31.5,24.2,11.0,0000.0,0005.74,0001.38,0000.50
2022-01-04 21:35:00,,0818.8,5.01,0.00,22.5,21.6,00.0,31.5,24.1,11.2,0000.0,0005.62,0001.40,0000.50
2022-01-04 21:36:00,,0818.8,5.00,0.00,22.5,21.7,00.0,31.5,24.2,11.0,0000.0,0005.76,0001.39,0000.51
2022-01-04 21:37:00,,0818.8,5.00,0.00,22.5,21.7,00.0,31.5,24.2,10.9,0000.0,0005.47,0001.29,0000.50
2022-01-04 21:38:00,,0818.7,5.00,0.00,22.5,21.7,00.0,31.5,24.3,10.9,0000.0,0005.72,0001.27,0000.50
2022-01-04 21:39:00,,0818.7,5.00,0.00,22.6,21.8,00.0,31.5,24.4,11.3,0000.0,0005.81,0001.28,0000.50
2022-01-04 21:40:00,,0818.7,5.00,0.00,22.6,21.8,00.0,31.6,24.3,11.1,0000.0,0005.39,0001.38,0000.50
2022-01-04 21:41:00,,0818.7,4.99,0.00,22.6,21.8,00.0,31.6,24.3,11.1,0000.0,0006.07,0001.37,0000.50
2022-01-04 21:42:00,,0818.6,5.01,0.00,22.6,21.8,00.0,31.6,24.3,11.0,0000.0,0006.54,0001.46,0000.51
2022-01-04 21:43:00,,0818.7,5.00,0.00,22.6,21.8,00.0,31.6,24.4,11.1,0000.0,0007.03,0001.49,0000.51
2022-01-04 21:44:00,,0818.7,5.00,0.00,22.7,21.9,00.0,31.6,24.5,11.3,0000.0,0007.02,0001.44,0000.50
2022-01-04 21:45:00,,0818.7,5.00,0.00,22.7,21.9,00.0,31.6,24.4,11.3,0000.0,0006.50,0001.47,0000.50
2022-01-04 21:46:00,,0818.8,5.01,0.00,22.7,21.9,00.0,31.6,24.4,11.4,0000.0,0006.29,0001.50,0000.51
2022-01-04 21:47:00,,0818.9,4.99,0.00,22.7,21.9,00.0,31.6,24.4,11.3,0000.0,0006.15,0001.52,0000.51
2022-01-04 21:48:00,,0818.8,4.99,0.00,22.7,22.0,00.0,31.7,24.4,11.0,0000.0,0006.04,0001.54,0000.52
2022-01-04 21:49:00,,0818.9,5.01,0.00,22.7,22.0,00.0,31.7,24.5,10.8,0000.0,0005.96,0001.55,0000.53
2022-01-04 21:50:00,,0818.8,4.99,0.00,22.8,22.0,00.0,31.7,24.5,11.0,0000.0,0006.14,0001.55,0000.53
2022-01-04 21:51:00,,0818.9,5.00,0.00,22.7,22.0,00.0,31.7,24.5,10.9,0000.0,0005.93,0001.49,0000.53
2022-01-04 21:52:00,,0818.8,5.01,0.00,22.7,22.0,00.0,31.7,24.5,10.8,0000.0,0005.02,0001.45,0000.52
2022-01-04 21:53:00,,0818.9,4.98,0.00,22.7,22.0,00.0,31.7,24.5,10.9,0000.0,0004.97,0001.35,0000.53
2022-01-04 21:54:00,,0818.9,5.01,0.00,22.8,22.0,00.0,31.7,24.5,10.8,0000.0,0005.32,0001.35,0000.53
2022-01-04 21:55:00,,0818.9,5.00,0.00,22.8,22.1,00.0,31.7,24.5,10.8,0000.0,0005.41,0001.41,0000.53
2022-01-04 21:56:00,,0819.0,5.01,0.00,22.8,22.1,00.0,31.7,24.6,10.6,0000.0,0005.35,0001.35,0000.54
2022-01-04 21:57:00,,0819.1,4.99,0.00,22.8,22.1,00.0,31.7,24.6,10.6,0000.0,0006.05,0001.27,0000.52
2022-01-04 21:58:00,,0819.1,5.01,0.00,22.8,22.2,00.0,31.8,24.6,11.0,0000.0,0006.95,0001.27,0000.51
2022-01-04 21:59:00,,0818.9,4.99,0.00,22.9,22.2,00.0,31.8,24.7,10.7,0000.0,0007.35,0001.31,0000.51
